Location: Chervonnoye
(48.6000°N, 34.4000°E)
Time: 18:07:55
(UTC+00:00)

Nadezhda 1 Rocket - Visible Passes

Search period start: 17 April 2021 00:00
Search period end: 27 April 2021 00:00
Orbit: 942 x 1005 km, 83.0° (Epoch: 16 April)

Date Brightness Start Highest point End Pass type
(mag) Time Alt. Az. Time Alt. Az. Time Alt. Az.
17 Apr 6.2 01:09:12 10° WNW 01:10:00 10° NW 01:10:47 10° NW visible
17 Apr 4.4 22:02:18 52° E 22:02:23 52° E 22:08:33 10° NNE visible
17 Apr 5.0 23:46:55 30° W 23:48:00 32° WNW 23:53:39 10° N visible
18 Apr 5.9 20:42:14 16° E 20:42:40 16° ENE 20:46:20 10° NE visible
18 Apr 3.9 22:26:50 83° SE 22:27:02 85° E 22:33:28 10° N visible
19 Apr 5.6 00:11:27 18° W 00:13:14 20° WNW 00:17:48 10° NNW visible
19 Apr 5.3 21:06:45 27° E 21:06:57 27° E 21:12:08 10° NNE visible
19 Apr 4.1 22:51:21 58° W 22:51:51 60° WNW 22:58:11 10° N visible
20 Apr 6.1 00:36:13 10° WNW 00:38:40 12° NW 00:41:07 10° NNW visible
20 Apr 4.6 21:31:15 44° E 21:31:24 44° E 21:37:24 10° NNE visible
20 Apr 4.8 23:15:52 35° W 23:16:50 37° WNW 23:22:43 10° N visible
21 Apr 6.0 20:11:09 13° E 20:11:49 13° ENE 20:14:36 10° NE visible
21 Apr 4.0 21:55:45 72° ESE 21:56:00 73° E 22:02:23 10° NNE visible
21 Apr 5.5 23:40:22 21° W 23:42:01 23° WNW 23:46:59 10° NNW visible
22 Apr 5.5 20:35:38 23° E 20:36:03 23° E 20:40:49 10° NNE visible
22 Apr 4.0 22:20:14 67° WSW 22:20:46 70° W 22:27:09 10° N visible
23 Apr 6.0 00:04:51 12° W 00:07:23 14° WNW 00:10:42 10° NNW visible
23 Apr 4.8 21:00:07 37° E 21:00:26 37° E 21:06:12 10° NNE visible
23 Apr 4.6 22:44:43 40° W 22:45:42 43° WNW 22:51:45 10° N visible
24 Apr 6.1 19:39:59 10° E 19:40:59 11° ENE 19:42:19 10° ENE visible
24 Apr 4.1 21:24:35 61° ESE 21:25:00 62° E 21:31:16 10° NNE visible
24 Apr 5.3 23:09:11 24° W 23:10:48 27° WNW 23:16:07 10° N visible
25 Apr 5.6 20:04:26 19° E 20:05:09 19° E 20:09:25 10° NE visible
25 Apr 3.9 21:49:02 72° SW 21:49:42 82° W 21:56:06 10° N visible
25 Apr 5.9 23:33:38 14° W 23:36:06 17° WNW 23:40:04 10° NNW visible
26 Apr 5.0 20:28:53 31° E 20:29:29 32° E 20:34:59 10° NNE visible
26 Apr 4.5 22:13:29 46° WSW 22:14:34 50° WNW 22:20:45 10° N visible
